Date String (YYYY-MM-DD hh:mm:ss) UTC,Instrument flags,Ambient pressure (hPa),Sample flow (lpm),Bypass flow (lpm),Sample temperature (°C),Ambient temperature (°C),ASC tube jacket temperature (°C),LED temperature (°C),Box temperature (°C),Sample RH (%),Span deviation,Mass concentration (μg/m³),Mass concentration (μg/m³),Mass concentration (μg/m³)
DateTimeUTC,F1_M11,P_M11,Q1_M11,Q2_M11,T1_M11,T2_M11,T3_M11,T4_M11,T5_M11,U1_M11,ZSPAN_M11,X0_M11,X2_M11,X1_M11
2022-01-20 14:00:00,,0832.1,5.00,0.00,21.9,22.2,00.0,31.0,23.7,09.8,-000.7,0010.70,0009.17,0008.89
2022-01-20 14:01:00,,0832.1,4.99,0.00,22.1,22.9,00.0,31.1,24.0,09.7,-000.0,0010.69,0009.17,0008.89
2022-01-20 14:02:00,,0832.1,5.01,0.00,22.2,22.8,00.0,31.1,24.0,09.7,0000.6,0010.67,0009.18,0008.91
2022-01-20 14:03:00,,0832.1,5.00,0.00,22.2,22.5,00.0,31.1,24.0,09.7,0000.7,0010.63,0009.16,0008.91
2022-01-20 14:04:00,,0832.1,4.99,0.00,22.1,22.2,00.0,31.1,23.8,09.7,0000.7,0010.62,0009.15,0008.92
2022-01-20 14:05:00,,0832.1,5.01,0.00,22.1,21.9,00.0,31.1,23.8,09.7,0000.5,0010.62,0009.14,0008.93
2022-01-20 14:06:00,,0832.1,4.99,0.00,22.0,21.7,00.0,31.1,23.7,09.7,0000.5,0010.68,0009.14,0008.92
2022-01-20 14:07:00,,0832.1,5.01,0.00,22.0,21.6,00.0,31.1,23.6,09.7,0000.1,0010.64,0009.11,0008.88
2022-01-20 14:08:00,,0832.1,4.98,0.00,21.9,21.5,00.0,31.0,23.6,09.7,-000.0,0010.61,0009.07,0008.85
2022-01-20 14:09:00,,0832.1,5.01,0.00,21.9,21.4,00.0,31.0,23.6,09.7,0000.7,0010.63,0009.07,0008.84
2022-01-20 14:10:00,,0832.1,4.98,0.00,21.9,21.3,00.0,31.0,23.5,09.7,0001.1,0010.68,0009.10,0008.86
2022-01-20 14:11:00,,0832.1,5.02,0.00,21.9,21.2,00.0,31.0,23.4,09.7,0001.2,0010.70,0009.11,0008.87
2022-01-20 14:12:00,,0832.1,4.99,0.00,21.8,21.1,00.0,31.0,23.4,09.8,0000.8,0010.75,0009.13,0008.88
2022-01-20 14:13:00,,0832.1,5.01,0.00,21.8,21.1,00.0,30.9,23.3,09.8,0000.8,0010.72,0009.13,0008.88
2022-01-20 14:14:00,,0832.1,5.00,0.00,21.9,21.8,00.0,31.0,23.6,09.8,0000.7,0010.77,0009.16,0008.90
2022-01-20 14:15:00,,0832.1,4.99,0.00,22.0,22.6,00.0,31.0,23.9,09.7,0001.0,0010.77,0009.17,0008.91
2022-01-20 14:16:00,,0832.1,5.01,0.00,22.1,22.8,00.0,31.0,24.0,09.7,0000.9,0010.82,0009.20,0008.92
2022-01-20 14:17:00,,0832.1,5.00,0.00,22.2,22.6,00.0,31.0,24.0,09.6,0000.7,0010.88,0009.25,0008.96
2022-01-20 14:18:00,,0832.1,5.00,0.00,22.1,22.3,00.0,31.0,23.9,09.6,0000.4,0010.95,0009.33,0009.04
2022-01-20 14:19:00,,0832.1,5.00,0.00,22.1,22.0,00.0,31.0,23.8,09.7,0000.4,0011.09,0009.44,0009.13
2022-01-20 14:20:00,,0832.1,5.00,0.00,22.0,21.8,00.0,31.0,23.7,09.7,0000.2,0011.13,0009.49,0009.17
2022-01-20 14:21:00,,0832.1,5.01,0.00,22.0,21.6,00.0,31.0,23.7,09.7,-000.1,0011.14,0009.50,0009.19
2022-01-20 14:22:00,,0832.1,4.99,0.00,22.0,21.4,00.0,31.0,23.6,09.8,-000.4,0011.20,0009.56,0009.24
2022-01-20 14:23:00,,0832.1,5.00,0.00,21.9,21.3,00.0,31.0,23.5,09.8,-000.3,0011.27,0009.63,0009.31
2022-01-20 14:24:00,,0832.1,5.00,0.00,21.8,21.2,00.0,31.0,23.4,09.8,-000.2,0011.37,0009.70,0009.36
2022-01-20 14:25:00,,0832.1,5.00,0.00,21.8,21.1,00.0,30.9,23.4,09.9,-000.3,0011.42,0009.74,0009.40
2022-01-20 14:26:00,,0832.1,5.02,0.00,21.7,21.0,00.0,30.9,23.3,09.9,-000.5,0011.53,0009.81,0009.46
2022-01-20 14:27:00,,0832.1,4.99,0.00,21.7,21.0,00.0,30.9,23.2,09.9,-000.4,0011.49,0009.83,0009.48
2022-01-20 14:28:00,,0832.1,5.00,0.00,21.7,21.5,00.0,30.9,23.4,09.9,-000.4,0011.49,0009.85,0009.51
2022-01-20 14:29:00,,0832.1,5.00,0.00,21.9,22.3,00.0,30.9,23.7,09.9,0000.0,0011.47,0009.86,0009.54
2022-01-20 14:30:00,,0832.1,5.01,0.00,22.0,22.9,00.0,31.0,24.0,09.8,0000.1,0011.45,0009.85,0009.55
2022-01-20 14:31:00,,0832.1,4.98,0.00,22.1,22.7,00.0,31.0,24.0,09.7,0000.5,0011.45,0009.87,0009.59
2022-01-20 14:32:00,,0832.1,5.00,0.00,22.1,22.4,00.0,31.0,23.9,09.7,0000.3,0011.53,0009.93,0009.63
2022-01-20 14:33:00,,0832.1,5.01,0.00,22.1,22.1,00.0,31.0,23.8,09.8,0000.5,0011.47,0009.90,0009.62
2022-01-20 14:34:00,,0832.1,5.01,0.00,22.0,21.8,00.0,31.0,23.7,09.8,0000.4,0011.44,0009.90,0009.63
2022-01-20 14:35:00,,0832.1,5.00,0.00,22.0,21.5,00.0,31.0,23.6,09.8,0000.1,0011.42,0009.90,0009.65
2022-01-20 14:36:00,,0832.1,5.00,0.00,21.9,21.4,00.0,30.9,23.5,09.9,0000.2,0011.33,0009.87,0009.64
2022-01-20 14:37:00,,0832.1,4.99,0.00,21.8,21.2,00.0,30.9,23.4,09.9,0000.2,0011.23,0009.83,0009.62
2022-01-20 14:38:00,,0832.0,5.01,0.00,21.8,21.1,00.0,30.9,23.3,09.9,-000.1,0011.25,0009.83,0009.63
2022-01-20 14:39:00,,0832.0,5.01,0.00,21.7,21.0,00.0,30.9,23.2,10.0,0000.2,0011.22,0009.81,0009.61
2022-01-20 14:40:00,,0832.0,4.99,0.00,21.6,20.8,00.0,30.8,23.1,10.0,0000.3,0011.23,0009.78,0009.57
2022-01-20 14:41:00,,0832.0,5.01,0.00,21.6,20.8,00.0,30.8,23.1,10.0,0000.4,0011.18,0009.74,0009.52
2022-01-20 14:42:00,,0832.0,5.00,0.00,21.6,21.5,00.0,30.8,23.2,10.0,0000.1,0011.12,0009.67,0009.47
2022-01-20 14:43:00,,0832.0,5.01,0.00,21.8,22.4,00.0,30.8,23.6,09.9,0000.0,0011.00,0009.61,0009.43
2022-01-20 14:44:00,,0832.0,4.99,0.00,21.9,22.8,00.0,30.8,23.8,09.9,-000.1,0010.95,0009.60,0009.42
2022-01-20 14:45:00,,0832.0,5.01,0.00,22.0,22.6,00.0,30.9,23.9,09.8,-000.4,0010.99,0009.59,0009.41
2022-01-20 14:46:00,,0832.0,4.99,0.00,22.0,22.3,00.0,30.9,23.8,09.8,-000.1,0010.91,0009.54,0009.37
2022-01-20 14:47:00,,0832.0,5.00,0.00,21.9,22.0,00.0,30.9,23.7,09.8,0000.2,0010.88,0009.52,0009.34
2022-01-20 14:48:00,,0831.9,5.01,0.00,21.9,21.8,00.0,30.9,23.6,09.8,0000.5,0010.93,0009.54,0009.34
2022-01-20 14:49:00,,0831.9,4.99,0.00,21.9,21.6,00.0,30.9,23.5,09.8,0000.7,0010.93,0009.54,0009.34
2022-01-20 14:50:00,,0831.8,5.02,0.00,21.8,21.4,00.0,30.9,23.4,09.9,0000.6,0010.92,0009.53,0009.34
2022-01-20 14:51:00,,0831.7,4.99,0.00,21.8,21.3,00.0,30.8,23.4,09.9,0000.7,0010.90,0009.54,0009.37
2022-01-20 14:52:00,,0831.7,5.01,0.00,21.7,21.2,00.0,30.8,23.3,09.9,0000.6,0010.96,0009.58,0009.40
2022-01-20 14:53:00,,0831.7,5.00,0.00,21.7,21.0,00.0,30.8,23.3,09.9,0000.8,0011.00,0009.62,0009.43
2022-01-20 14:54:00,,0831.8,4.98,0.00,21.6,20.9,00.0,30.8,23.2,10.0,0000.4,0011.16,0009.71,0009.48
2022-01-20 14:55:00,,0831.8,5.02,0.00,21.6,20.9,00.0,30.8,23.2,10.0,0000.4,0011.21,0009.75,0009.52
2022-01-20 14:56:00,,0831.8,4.99,0.00,21.6,21.3,00.0,30.8,23.3,10.0,0000.7,0011.21,0009.78,0009.56
2022-01-20 14:57:00,,0831.8,5.00,0.00,21.8,22.2,00.0,30.8,23.6,09.9,0000.4,0011.33,0009.86,0009.62
2022-01-20 14:58:00,,0831.9,4.99,0.00,21.9,23.0,00.0,30.8,23.9,09.9,0000.0,0011.51,0009.95,0009.68
2022-01-20 14:59:00,,0831.9,5.01,0.00,22.0,22.9,00.0,30.9,24.0,09.8,-000.7,0011.52,0009.96,0009.69
